#timestamp,LO_Frequency,Hit,StdDev 
1546156815.8,286047001.0,N
1546156835.7,286047002.8,N
1546156855.5,286046999.9,N
1546156875.3,286047000.4,N
1546156895.2,286047002.3,N
1546156915.0,286047002.3,N
1546156915.9,286047002.3,N
1546156935.8,286047000.2,N
1546156955.6,286047002.6,N
1546156975.4,286047001.3,N
1546156995.3,286047005.9,Y
1546157015.1,286047001.9,P
1546157035.8,286046999.9,N
1546157055.7,286046998.3,N
1546157075.5,286046998.1,N
1546157095.4,286046999.4,N
1546157115.2,286046998.8,N
1546157135.0,286046999.0,N
1546157135.9,286046999.0,N
1546157155.8,286047000.8,N
1546157175.6,286046998.1,N
1546157195.4,286046999.9,N
1546157215.3,286047002.8,N
1546157235.1,286047001.1,N
1546157255.9,286046998.8,N
1546157275.7,286046998.7,N
1546157295.5,286046999.4,N
1546157315.4,286047001.1,N
1546157335.2,286046998.9,N
1546157355.1,286046999.6,N
1546157356.0,286046999.6,N
1546157375.8,286046999.3,N
1546157395.6,286046997.2,N
1546157415.5,286046998.0,N
1546157435.3,286046997.9,N
1546157455.1,286046999.2,N
1546157475.9,286046999.5,N
1546157495.7,286046997.1,N
1546157515.6,286046996.7,N
1546157535.4,286046997.4,N
1546157555.2,286046997.0,N
1546157575.1,286046999.1,N
1546157576.0,286046999.1,N
1546157595.8,286046998.3,N
1546157615.6,286047000.5,N
1546157635.5,286047000.8,N
1546157655.3,286046998.2,N
1546157675.2,286046998.4,N
1546157695.9,286047001.0,N
1546157715.7,286047001.0,N
1546157735.6,286047001.0,N
1546157755.4,286047000.8,N
1546157775.3,286046998.4,N
1546157795.1,286046999.6,N
1546157796.0,286046999.6,N
1546157815.8,286046999.6,N
1546157835.7,286046997.7,N
1546157855.5,286046998.8,N
1546157875.3,286046998.7,N
1546157895.2,286047001.2,N
1546157915.0,286047000.1,N
1546157915.9,286047000.1,N
1546157935.8,286047000.2,N
1546157955.6,286046998.7,N
1546157975.4,286047000.8,N
1546157995.3,286046998.4,N
1546158015.1,286047000.4,N
1546158035.9,286046998.3,N
1546158055.7,286046998.1,N
1546158075.5,286047004.4,Y
1546158095.4,286047002.5,P
1546158115.2,286047002.7,N
1546158135.0,286047002.8,N
1546158136.0,286047002.8,N
1546158155.8,286047000.6,N
1546158175.6,286047000.6,N
1546158195.5,286046998.3,N
1546158215.3,286047000.4,N
1546158235.1,286046998.7,N
1546158255.9,286046996.8,N
1546158275.7,286046996.6,N
1546158295.6,286046998.6,N
1546158315.4,286046999.1,N
1546158335.2,286046998.8,N
1546158355.1,286046998.6,N
1546158356.0,286046998.6,N
1546158375.8,286047000.4,N
1546158395.6,286047000.5,N
1546158415.5,286047000.3,N
1546158435.3,286047000.2,N
1546158455.2,286047002.8,N
1546158475.9,286047000.1,N
1546158495.7,286047000.5,N
1546158515.6,286047000.6,N
1546158535.4,286046998.5,N
1546158555.2,286047001.0,N
1546158575.1,286047002.7,N
1546158576.0,286047002.7,N
1546158595.8,286047002.2,N
1546158615.7,286047000.6,N
1546158635.5,286046998.9,N
1546158655.3,286046996.5,N
1546158675.2,286047000.4,N
1546158695.0,286046999.9,N
1546158695.9,286046999.9,N
1546158715.8,286047000.0,N
1546158735.6,286046998.4,N
1546158755.4,286046998.5,N
1546158775.3,286046996.7,N
1546158795.1,286046996.8,N
1546158815.8,286046998.9,N
1546158835.7,286046998.8,N
1546158855.5,286046999.5,N
1546158875.4,286046998.7,N
1546158895.2,286046999.2,N
1546158915.0,286047001.2,N
1546158915.9,286047001.2,N
1546158935.8,286047000.5,N
1546158955.6,286047000.5,N
1546158975.5,286047001.5,N
1546158995.3,286047000.5,N
1546159015.1,286047001.2,N
1546159035.9,286047000.1,N
1546159055.7,286047001.0,N
1546159075.5,286046998.1,N
1546159095.4,286047000.8,N
1546159115.2,286046999.5,N
1546159135.1,286046996.8,N
1546159136.0,286046996.8,N
1546159155.8,286046995.1,Y
1546159175.6,286046997.2,P
1546159195.5,286046999.6,N
1546159215.3,286046996.8,N
1546159235.2,286046998.6,N
1546159255.9,286046999.2,N
1546159275.7,286046996.9,N
1546159295.6,286046997.9,N
1546159315.4,286046998.0,N
1546159335.2,286046996.2,Y
1546159355.1,286046997.6,P
1546159356.0,286046997.6,P
1546159375.8,286046998.9,P
1546159395.7,286047001.2,N
1546159415.5,286046999.4,N
1546159435.3,286047001.2,N
1546159455.2,286047001.9,N
1546159475.0,286047002.1,N
1546159475.9,286047002.1,N
1546159495.8,286047000.0,N
1546159515.6,286046999.4,N
1546159535.4,286046999.4,N
1546159555.3,286046998.1,N
1546159575.1,286046998.7,N
1546159595.8,286046999.2,N
1546159615.7,286047000.0,N
1546159635.5,286047004.4,N
1546159655.4,286047004.3,N
1546159675.2,286047003.9,N
1546159695.0,286047003.9,N
1546159695.9,286047003.9,N
1546159715.8,286047000.2,N
1546159735.6,286047001.1,N
1546159755.4,286047000.1,N
1546159775.3,286047002.1,N
1546159795.1,286047002.3,N
1546159815.9,286047002.1,N
1546159835.7,286047002.8,N
1546159855.5,286047000.4,N
1546159875.4,286047000.1,N
1546159895.2,286047001.0,N
1546159915.1,286047001.4,N
1546159916.0,286047001.4,N
1546159935.8,286047003.5,N
1546159955.6,286047005.2,N
1546159975.5,286047007.5,Y
1546159995.3,286047002.0,P
1546160015.1,286047000.4,N
1546160035.9,286047002.7,P
1546160055.7,286046999.8,N
1546160075.6,286047004.3,Y
1546160095.4,286047002.0,P
1546160115.2,286047000.9,N
1546160135.1,286047000.6,N
1546160136.0,286047000.6,N
1546160155.8,286046998.3,Y
1546160175.7,286046997.4,P
1546160195.5,286046997.7,N
1546160215.3,286046997.5,N
1546160235.2,286046997.2,N
1546160255.0,286046998.5,N
1546160255.9,286046998.5,N
1546160275.8,286046998.8,N
1546160295.6,286046999.0,N
1546160315.4,286046998.8,N
1546160335.3,286046999.3,N
1546160355.1,286046999.2,N
1546160375.8,286046999.5,N
1546160395.7,286046999.2,N
